Flag for Austria Weather past 2 weeks in Linz, Upper Austria, Austria

Now
55 °F

Clear.


Feels Like: 54 °F
Forecast: 51 / 71 °F
Wind: 6 mph from East

Location: Linz / Hoersching-Flughafen

Current Time: Sep 17, 2014 at 8:13:02 AM

Latest Report: Sep 17, 2014 at 7:20 AM


Visibility: 10 mi

Pressure: 29.98 "Hg

Humidity: 88%

Dew point: 52 °F

Location of LinzLocation

Historic Weather in Linz — Graph

°F

Linz temperature yesterday

Maximum temperature yesterday: 72 °F (at 2:50 PM)
Minimum temperature yesterday: 55 °F (at 3:50 AM)
Average temperature yesterday: 63 °F

Past Weeks' High & Low Weather Summary

 TemperatureHumidityPressure
High79 °F (Sep 7, 4:20 PM)100% (Sep 3, 3:50 AM)30.15 "Hg (Sep 3, 3:50 AM)
Low52 °F (Sep 13, 1:50 AM)42% (Sep 8, 5:20 PM)29.89 "Hg (Sep 12, 4:20 AM)
Average61 °F85%30.02 "Hg
* Reported Sep 2 6:20 AM — Sep 17 6:50 AM, Linz, Weather by CustomWeather, © 2014

Note: Actual official high and low records may vary slightly from our data, if they occured in-between our weather recording intervals... More about our weather records

Advertising

Linz weather history for previous 24 hours

 ConditionsComfort  
Time TempWeatherWind HumidityBarometerVisibility
6:50 AM
Sep 17
54 °FClear.7 mph88%29.98 "Hg10 mi
6:20 AM55 °FClear.5 mph88%29.98 "Hg10 mi
5:50 AM55 °FClear.7 mph88%29.98 "Hg10 mi
5:20 AM55 °FClear.9 mph88%29.98 "Hg10 mi
4:50 AM55 °FClear.8 mph88%29.98 "Hg10 mi
4:20 AM55 °FClear.6 mph88%29.98 "Hg10 mi
3:50 AM55 °FClear.6 mph88%29.98 "Hg10 mi
3:20 AM55 °FCool.8 mph88%30.01 "HgN/A
2:50 AM55 °FCool.7 mph94%30.01 "HgN/A
2:20 AM55 °FClear.7 mph94%30.01 "Hg10 mi
1:50 AM57 °FCool.7 mph88%30.01 "HgN/A
1:20 AM57 °FCool.7 mph88%30.01 "HgN/A
12:50 AM57 °FCool.8 mph88%30.01 "HgN/A
12:20 AM57 °FCool.9 mph88%30.01 "HgN/A
11:50 PM
Sep 16
57 °FCool.6 mph88%30.01 "HgN/A
11:20 PM59 °FCool.8 mph82%30.01 "HgN/A
10:50 PM59 °FClear.9 mph82%30.01 "Hg10 mi
10:20 PM59 °FClear.6 mph88%30.01 "Hg10 mi
9:50 PM61 °FClear.7 mph83%30.01 "Hg10 mi
9:20 PM61 °FClear.6 mph83%30.01 "Hg10 mi
8:50 PM63 °FPassing clouds.5 mph77%30.01 "HgN/A
8:20 PM63 °FPassing clouds.6 mph77%30.01 "HgN/A
7:50 PM64 °FSunny.7 mph78%30.01 "Hg10 mi
7:20 PM66 °FSunny.9 mph68%30.01 "Hg10 mi
6:50 PM66 °FSunny.7 mph73%30.01 "Hg10 mi
6:20 PM70 °FPassing clouds.12 mph64%30.01 "HgN/A
5:50 PM70 °FPassing clouds.12 mph64%30.01 "HgN/A
5:20 PM70 °FPassing clouds.14 mph60%30.01 "HgN/A
4:50 PM72 °FPassing clouds.14 mph61%30.01 "HgN/A
4:20 PM72 °FPassing clouds.13 mph61%30.01 "HgN/A
3:50 PM72 °FPassing clouds.14 mph57%30.01 "HgN/A
3:20 PM70 °FPassing clouds.13 mph60%30.01 "HgN/A
2:50 PM72 °FPassing clouds.14 mph57%30.01 "HgN/A
2:20 PM70 °FPassing clouds.13 mph57%30.01 "HgN/A
1:50 PM70 °FPassing clouds.14 mph60%30.04 "HgN/A
1:20 PM70 °FPassing clouds.14 mph60%30.04 "HgN/A
12:50 PM70 °FPassing clouds.12 mph60%30.04 "HgN/A
12:20 PM68 °FPassing clouds.12 mph64%30.04 "HgN/A
11:50 AM66 °FPassing clouds.10 mph68%30.04 "HgN/A
11:20 AM68 °FPassing clouds.10 mph64%30.04 "HgN/A
10:50 AM66 °FPassing clouds.12 mph68%30.04 "HgN/A
10:20 AM64 °FPassing clouds.10 mph78%30.04 "HgN/A
9:50 AM64 °FPassing clouds.9 mph78%30.04 "HgN/A
9:20 AM63 °FPassing clouds.8 mph83%30.04 "HgN/A
8:50 AM61 °FPassing clouds.9 mph88%30.04 "HgN/A
8:20 AM61 °FPassing clouds.7 mph88%30.04 "Hg6 mi
Weather by CustomWeather, © 2014

See weather overviewHow to use our weather pages